Location: *
(10.5081°N, 66.9194°W)
Time: 04:16:16
(UTC+00:00)

Cosmos 1455 Rocket - Pass Details

Date: 30 March 2020
Orbit: 605 x 630 km, 82.5° (Epoch: 24 May)

Event Time Altitude Azimuth Distance (km) Brightness Sun altitude
Rises 23:36:57 0° 195° (SSW) 2,848 6.6 -15.1°
Reaches altitude 10° 23:39:13 10° 202° (SSW) 1,945 5.8 -15.7°
Maximum altitude 23:43:20 45° 275° (W) 825 4.2 -16.7°
Drops below altitude 10° 23:47:27 10° 348° (NNW) 1,949 5.9 -17.7°
Sets 23:49:45 0° 354° (N) 2,855 6.6 -18.3°
